COSMOS 2589

Last updated on Thu Jul 03 2025 00:02:07 GMT+0000 (Coordinated Universal Time)

1 64467U 25131A 25183.74924727 -.00000335 00000+0 00000+0 0 9990 2 64467 1.0515 280.6809 3656554 173.8117 199.0987 1.00203011 120
UTC large
Height (km)
Speed (km/s)
/
Latitude / Longitude
Inclination (degrees)
Orbital Period (minutes)
Azimuth
Elevation
Range (km)
Doppler Factor

Next 0 passes for location: London (51.5072 / 0.1276)

Sorry there are no passes over London.